RH
68 69 71 73 75 77 78 78 81 80 81 83 84 83 81 84 75 14 14 28 38 63 81 38 16 16 18 21 24 28 45 52 45 45 46 42 55 47 50 64 66 67 74 66 55
66 68 70 71 74 77 78 78 84 83 84 84 82 82 82 87 32 14 28 56 64 76 22 16 16 16 20 22 27 36 50 47 37 38 44 40 43 40 50 57 59 58 51 49 54
67 68 69 70 72 75 78 82 83 83 83 83 78 80 84 87 12 12 50 50 61 56 19 16 16 19 28 29 33 38 42 35 36 35 38 43 45 42 50 58 53 58 51 50 49
68 66 69 69 71 74 80 82 83 81 84 82 76 74 83 25 10 14 53 52 55 27 13 18 20 27 33 32 32 31 30 32 33 38 40 45 43 49 49 53 47 48 41 42 46
68 67 70 70 71 75 81 82 82 82 83 80 77 73 29 17 18 12 46 31 13 13 14 18 24 30 32 26 24 29 31 32 34 36 40 40 48 51 52 47 44 44 47 51 51
69 69 72 72 72 76 80 80 81 83 81 79 77 71 17 18 12 13 15 12 12 15 19 20 22 21 25 29 30 29 30 32 34 35 37 40 44 47 47 48 44 46 54 57 54
68 72 74 72 72 78 81 77 78 80 79 78 75 25 18 18 13 15 15 14 14 14 16 18 16 21 26 26 25 25 31 29 32 36 36 37 46 55 47 43 46 49 53 57 58
68 73 78 77 78 81 81 79 78 78 78 79 76 16 20 12 21 11 15 13 14 14 15 16 15 18 25 22 20 22 23 41 32 32 32 40 66 46 44 48 51 50 54 56 58
71 73 76 76 78 81 81 80 77 78 78 63 22 16 15 21 14 14 17 19 15 13 13 11 16 21 19 23 24 21 27 40 36 32 34 41 52 41 42 45 48 53 58 59 68
73 72 75 75 76 80 80 81 60 55 27 18 21 18 18 18 18 17 18 20 16 17 14 16 21 23 24 22 24 23 26 34 48 44 37 46 56 45 45 48 49 51 53 54 60
74 71 73 73 75 79 66 38 25 25 23 22 26 26 20 17 19 18 20 20 19 20 23 22 28 23 23 24 21 22 28 39 58 38 41 52 51 45 48 53 51 53 51 55 56
77 74 71 72 74 77 65 49 37 22 21 18 20 22 20 23 22 18 18 20 26 25 25 26 30 26 24 23 20 30 34 43 40 39 40 51 63 64 47 47 48 46 48 49 46
78 74 72 72 76 53 53 51 54 38 27 21 18 19 19 19 25 20 19 25 24 28 27 30 26 22 22 23 21 23 37 35 40 45 43 44 52 48 38 37 42 44 43 39 38
78 72 74 72 46 53 51 46 55 37 42 27 21 16 16 22 24 19 22 21 26 27 29 27 21 23 26 24 22 23 22 27 41 49 57 48 50 53 44 38 38 39 38 38 35
78 74 77 55 45 51 44 52 64 45 49 27 19 13 18 19 23 19 21 22 31 31 28 33 24 20 21 23 24 22 25 24 27 31 46 54 57 42 44 41 38 38 36 37 39
78 77 76 56 62 52 61 51 49 66 34 30 19 22 21 20 23 22 22 25 27 28 29 33 26 29 28 24 24 26 40 45 50 47 53 40 53 44 48 36 35 35 35 38 40
78 78 61 62 47 80 62 50 68 66 32 26 22 23 23 26 25 26 31 36 36 38 31 27 32 28 28 29 31 52 53 77 60 71 59 40 52 44 40 38 30 32 39 42 43
80 78 68 68 87 75 59 59 51 42 38 24 24 22 25 25 31 38 39 48 48 39 46 33 28 31 27 36 35 57 60 74 46 65 52 46 48 57 42 37 30 29 38 43 45
76 77 79 86 86 58 65 82 61 42 40 26 23 25 28 31 31 37 41 45 44 40 37 47 38 29 30 35 37 46 66 63 76 70 60 46 40 46 38 41 40 42 44 47 48
77 81 85 85 78 59 82 66 46 40 29 28 32 30 31 31 35 40 41 40 39 48 53 48 40 31 27 31 39 48 50 58 78 37 48 45 56 58 41 41 44 46 47 48 50
63 71 74 89 64 76 85 61 47 45 28 25 35 34 34 35 37 42 40 39 38 54 43 43 54 39 28 39 45 56 73 72 67 75 67 67 36 48 40 38 45 44 46 48 49
65 90 88 74 85 99 86 47 48 32 38 27 35 36 37 34 40 45 45 42 38 49 49 57 64 55 40 42 44 51 53 60 74 53 87 80 48 42 43 40 42 44 43 46 48
94 99 82 66 92 96 71 52 44 29 28 29 36 36 40 41 46 44 43 48 42 46 54 46 63 72 43 47 55 54 88 88 84 76 71 70 40 37 39 39 39 42 40 40 43
94 100 96 95 91 69 65 51 42 33 30 29 34 38 46 49 46 47 45 50 48 59 64 55 63 63 54 57 69 67 99 96 74 83 70 66 39 45 35 29 30 42 46 49 48
87 96 87 95 97 78 54 46 40 36 33 31 40 36 43 51 48 52 52 48 39 54 55 51 73 79 81 78 45 47 73 83 70 64 52 29 55 42 40 37 40 51 51 48 45
94 94 84 74 69 70 66 58 37 35 34 35 39 44 43 50 43 54 49 48 43 45 62 61 82 60 64 65 69 59 49 72 64 54 48 45 46 40 52 55 53 50 48 49 49
87 73 68 75 72 82 80 58 43 37 46 38 44 45 46 49 48 48 47 48 45 53 62 56 73 69 61 54 46 51 52 64 63 57 52 56 46 48 58 52 54 55 54 54 60
Wind_Speed
6 8 11 11 11 12 13 14 14 14 15 16 15 16 16 17 15 6 10 7 11 19 10 5 6 7 7 9 9 4 8 6 4 5 7 9 16 15 15 23 24 13 17 10 12
5 7 10 12 11 12 13 14 14 14 14 15 15 17 17 14 3 5 5 17 17 10 3 7 7 10 8 8 8 8 7 6 5 7 14 13 13 10 11 19 18 17 16 12 15
5 7 10 12 12 12 13 13 15 15 15 15 15 16 17 7 3 6 14 28 22 6 5 5 6 9 10 6 8 6 8 14 11 17 19 21 20 2 10 17 13 13 14 13 12
3 6 9 10 14 12 11 13 15 16 16 15 16 17 17 2 4 7 20 26 20 3 8 12 9 9 9 12 5 22 13 7 3 4 10 13 9 20 17 9 9 11 10 12 13
3 4 8 11 13 14 10 11 13 14 15 16 16 17 5 8 3 9 20 16 9 10 10 8 11 7 12 16 26 20 11 13 16 15 16 20 17 14 13 8 9 10 8 8 7
3 5 7 11 11 17 10 9 11 11 13 14 14 11 6 8 5 10 11 10 11 10 8 11 13 17 14 6 7 9 20 17 14 13 6 16 5 7 3 4 10 11 8 7 7
2 5 7 10 10 16 14 10 9 10 13 13 10 4 8 0 6 10 10 6 8 7 12 5 8 9 6 19 6 14 25 10 5 5 8 7 12 5 3 4 10 8 6 7 7
4 3 5 8 9 14 16 13 9 10 11 9 4 4 2 5 5 9 10 8 11 8 10 10 14 14 8 8 7 7 6 6 6 2 5 8 3 2 1 5 8 7 5 6 5
5 2 4 6 9 12 18 15 10 7 8 5 6 5 3 10 8 8 6 5 6 10 11 9 12 11 10 8 6 7 5 7 2 3 3 6 5 7 2 3 8 5 4 4 3
5 3 2 4 8 11 19 9 9 5 5 3 3 7 8 5 5 7 6 5 9 6 10 14 8 9 5 5 4 5 7 3 2 3 9 7 3 5 3 2 9 6 5 5 4
6 3 5 4 7 8 10 4 6 9 11 4 2 2 2 8 3 8 5 5 8 12 7 7 9 13 8 4 5 9 6 6 2 4 7 3 7 7 4 2 6 5 4 3 2
7 4 7 5 7 8 2 2 2 6 8 4 3 3 1 2 8 14 7 8 9 6 4 10 5 6 2 7 8 8 12 4 2 4 6 4 2 2 4 5 5 8 6 5 2
8 5 7 7 8 3 2 1 5 2 8 3 1 3 3 6 4 9 6 3 8 9 7 8 2 5 4 7 12 4 8 6 7 3 7 6 5 5 5 4 2 3 4 4 8
9 6 7 7 4 0 1 4 5 2 7 2 2 2 5 3 6 3 4 5 8 6 4 7 5 4 7 8 4 4 1 6 9 5 3 2 5 6 6 6 5 6 5 7 7
9 8 5 8 5 3 1 2 4 6 5 2 1 2 3 7 1 7 5 9 5 4 4 2 5 7 9 3 2 4 3 5 4 5 5 1 2 6 7 8 9 8 8 8 7
10 8 8 6 3 2 4 3 6 11 5 3 2 2 6 6 4 2 6 9 4 8 9 4 3 4 1 3 4 7 7 9 5 3 3 6 7 6 6 15 7 6 8 9 8
11 9 3 3 4 4 3 6 9 5 4 4 4 3 4 3 4 3 4 5 4 8 4 6 4 5 4 6 5 7 7 4 4 4 6 2 3 9 4 6 10 14 11 9 8
12 7 3 2 2 1 4 8 6 3 5 1 4 6 5 4 3 2 4 3 2 7 5 6 3 4 6 3 4 2 4 7 7 4 3 2 7 8 4 7 6 12 11 8 8
13 2 1 3 4 3 8 6 10 7 5 6 5 6 3 2 5 4 2 6 4 5 7 6 1 2 4 2 3 2 1 1 7 3 2 3 6 6 3 4 6 9 8 9 8
6 3 3 4 4 6 7 6 4 4 3 2 4 4 6 5 4 3 6 3 4 1 3 7 7 1 1 2 5 3 4 4 5 2 4 5 5 6 3 5 5 7 9 8 7
5 5 3 7 4 7 5 5 4 5 4 5 3 5 6 7 5 4 6 0 2 2 4 5 6 3 1 2 6 2 1 5 4 3 5 1 7 5 6 7 10 9 8 9 9
5 5 4 4 5 1 4 6 4 3 3 4 3 5 6 6 5 3 6 1 4 6 4 1 6 4 2 1 2 2 3 5 7 5 1 3 8 3 7 8 7 6 5 6 7
5 3 3 1 6 3 3 3 2 4 5 5 3 3 3 6 7 4 3 2 2 3 7 6 1 4 5 4 4 3 3 4 4 3 6 6 7 4 4 7 5 5 4 6 5
6 4 3 4 2 7 5 5 5 4 4 4 4 4 6 4 6 5 3 3 2 4 8 7 3 5 8 7 5 3 3 3 6 5 4 7 4 2 2 7 6 5 4 8 7
3 5 7 7 6 4 6 8 6 5 3 4 1 6 8 5 4 5 2 3 4 3 4 5 3 3 2 1 3 4 4 8 7 5 7 2 6 4 4 2 3 6 5 7 7
8 6 2 5 11 5 6 6 12 4 6 4 6 5 4 8 9 11 9 4 5 4 3 3 2 1 2 1 1 4 5 8 5 2 7 3 5 3 4 6 7 6 6 7 7
2 3 7 5 8 6 5 6 9 7 2 2 11 7 4 2 4 7 5 6 7 9 4 4 7 4 3 3 2 8 10 11 6 4 7 6 7 5 4 6 5 5 6 6 6
Wind_Direction
9 357 342 348 3 3 2 357 344 343 332 323 325 324 321 328 322 7 27 251 289 299 305 265 53 36 48 49 37 59 67 65 125 75 109 86 93 79 78 76 64 73 77 76 42
355 357 343 341 356 2 359 355 341 340 333 326 329 327 324 328 328 10 292 326 320 317 76 92 56 49 50 26 22 63 76 57 74 90 97 86 82 88 87 80 70 75 71 70 58
352 351 343 345 346 357 360 352 342 339 335 328 330 329 326 318 6 320 327 332 327 322 74 62 76 69 61 42 2 31 86 98 70 96 97 89 71 105 87 63 70 82 76 66 62
343 344 344 350 336 346 360 354 343 339 333 326 330 333 324 359 71 292 334 321 323 299 72 43 29 57 73 60 360 98 64 76 93 63 90 74 85 76 80 97 103 83 79 77 68
308 338 346 336 341 331 355 1 340 340 328 323 331 337 18 42 348 301 325 324 336 59 75 90 57 82 89 101 80 82 93 85 97 86 85 92 74 93 76 98 98 95 84 82 83
294 321 352 326 0 325 339 356 332 331 318 316 336 340 56 60 284 319 331 336 21 68 58 79 96 102 84 52 75 124 102 100 100 88 69 92 57 83 5 128 91 86 70 58 69
239 313 353 329 8 324 321 328 324 321 310 311 343 38 57 233 337 317 5 340 347 342 99 91 133 79 109 86 40 113 104 81 13 68 120 60 25 59 144 106 86 74 71 62 39
191 301 350 329 9 325 311 308 312 309 300 302 356 59 79 298 315 6 346 355 19 26 74 99 88 93 69 105 53 81 53 85 229 198 1 86 179 285 165 123 99 92 76 71 35
190 228 336 334 360 329 309 301 299 297 282 296 47 70 354 325 20 321 24 6 338 47 37 80 74 81 67 93 52 10 104 117 246 19 134 92 154 227 228 195 125 127 126 111 77
197 223 308 357 355 337 311 285 305 331 15 38 62 53 6 312 317 330 330 39 44 37 34 28 51 91 50 69 182 150 103 113 155 346 46 77 136 160 192 234 147 167 176 151 137
193 199 269 30 354 352 338 1 24 8 39 105 276 158 347 302 44 347 344 18 39 47 49 20 67 141 151 153 129 111 86 104 39 16 77 89 127 177 169 139 159 189 186 170 163
194 181 259 46 349 348 337 48 251 185 89 40 62 17 36 82 34 345 18 68 57 60 7 38 44 328 39 135 104 100 113 80 73 15 92 119 120 209 198 219 203 173 193 197 198
204 184 246 68 342 37 42 279 321 15 89 6 38 41 339 65 64 337 25 68 76 49 37 103 4 344 74 85 103 38 134 162 150 99 52 96 332 201 223 235 201 230 202 181 180
198 184 233 87 60 204 37 338 335 43 78 307 13 12 16 97 56 347 27 102 42 119 74 75 330 59 64 73 51 82 237 125 124 91 165 131 276 239 210 212 205 212 210 190 178
182 197 225 96 139 128 160 5 20 50 66 265 77 284 38 83 160 2 5 37 77 58 80 289 18 39 55 11 34 159 78 106 104 92 104 177 54 258 150 218 217 207 213 209 193
175 182 205 74 64 326 309 74 53 41 243 150 81 89 66 27 40 10 47 48 138 67 38 63 12 50 58 46 41 146 69 41 46 69 4 211 153 268 178 219 191 171 204 200 188
169 177 283 100 160 315 295 54 48 123 296 180 144 123 87 79 66 59 45 45 125 91 17 19 355 329 33 66 37 57 65 14 4 7 220 147 131 252 233 233 189 180 190 197 190
159 134 347 60 320 311 60 59 94 235 203 140 123 102 126 145 44 65 85 97 33 85 103 139 308 3 343 74 169 71 144 150 198 198 265 119 229 255 275 277 183 167 171 177 193
128 86 320 352 19 50 79 74 196 195 182 156 80 101 112 75 118 91 53 172 179 172 129 137 40 322 57 49 89 170 141 133 107 15 39 240 297 335 51 54 131 144 155 195 206
117 114 356 302 22 58 77 184 191 190 133 181 126 139 147 155 92 112 186 198 155 201 128 196 103 302 289 103 53 124 129 61 359 115 279 287 272 243 234 187 158 160 191 211 221
83 84 293 324 67 51 157 202 198 212 174 173 144 125 143 141 132 165 187 195 148 69 77 131 103 259 109 177 168 109 60 62 121 126 168 278 266 209 229 204 187 201 204 210 221
112 88 314 292 76 28 173 193 172 168 160 240 133 110 139 144 126 141 176 189 144 152 131 117 123 130 184 156 123 131 157 142 118 256 202 146 273 326 266 218 186 215 231 249 243
85 92 317 40 151 230 269 234 165 146 185 181 171 134 119 131 112 129 122 349 88 109 161 183 39 73 2 4 353 185 95 117 122 90 202 133 265 350 58 106 141 190 287 321 308
91 99 349 35 56 157 153 200 175 182 199 149 125 85 103 81 40 138 124 13 35 94 78 85 97 160 184 198 138 152 177 182 127 120 187 225 287 285 138 101 29 37 68 80 76
91 189 181 181 213 189 152 182 160 175 193 155 129 167 141 116 94 121 122 130 49 111 57 96 124 89 253 114 151 174 172 179 181 181 159 291 203 262 214 31 43 102 96 76 57
130 138 64 176 155 150 165 203 176 188 144 192 154 144 119 145 180 183 142 183 177 80 84 37 141 142 9 119 265 273 215 193 219 200 262 277 268 229 87 99 85 74 69 60 47
171 72 113 149 150 141 191 175 198 151 30 137 150 113 93 111 97 92 82 95 135 131 129 113 133 104 269 356 360 303 213 183 184 187 149 189 220 147 108 101 89 73 63 56 52